Weather History for KBBB - January, 2013

Change the Weather History Date:

Saturday, January 19, 2013

  Actual Average Record
Temperature  
Mean Temperature 18 °F -  
Max Temperature 37 °F 20 °F 44 °F (2015)
Min Temperature -2 °F 0 °F -33 °F (1970)
Degree Days  
Heating Degree Days 46    
Moisture  
Dew Point 13 °F    
Average Humidity 83    
Maximum Humidity 100    
Minimum Humidity 72    
Precipitation  
Precipitation 0.00 in - - ()
Sea Level Pressure  
Sea Level Pressure 29.93 in    
Wind  
Wind Speed 12 mph (NNW)    
Max Wind Speed 41 mph    
Max Gust Speed 47 mph    
Visibility 8 miles    
Events Snow    
Averages and records for this station are not official NWS values.
T = Trace of Precipitation, MM = Missing Value Source: NWS Daily Summary

Daily Weather History Graph

Daily Weather History Graph

Search for Another Location

Airport or City:

Trip Planner

Search our weather history database for the weather conditions in past years. The results will help you decide how hot, cold, wet, or windy it might be!

Date:

Astronomy

Jan. 19, 2013 Rise Set
Actual Time 7:55 AM CST 5:11 PM CST
Civil Twilight 7:22 AM CST 5:44 PM CST
Nautical Twilight 6:46 AM CST 6:20 PM CST
Astronomical Twilight 6:11 AM CST 6:55 PM CST
Moon 11:41 AM CST (1/19) 1:26 AM CST (1/19)
Length of Visible Light 10h 21m
Length of Day
9h 16m
First Quarter, 57% of the Moon is Illuminated
Jan 19
First Quarter
Jan 26
Full
Feb 3
Last Quarter
Feb 10
New
Feb 17
First Quarter

Hourly Weather History & Observations

Time (CST) Temp. Windchill Dew Point Humidity Pressure Visibility Wind Dir Wind Speed Gust Speed Precip Events Conditions
12:13 AM 24.8 °F - 24.8 °F 100% 29.72 in 10.0 mi Calm Calm - N/A   Clear
12:33 AM 26.6 °F 22.6 °F 24.8 °F 93% 29.71 in 10.0 mi South 3.5 mph - N/A   Clear
12:52 AM 26.6 °F - 24.8 °F 93% 29.71 in 10.0 mi Calm Calm - N/A   Scattered Clouds
1:13 AM 24.8 °F - 24.8 °F 100% 29.72 in 10.0 mi Calm Calm - N/A   Scattered Clouds
1:33 AM 23.0 °F - 21.2 °F 93% 29.71 in 10.0 mi Calm Calm - N/A   Clear
1:52 AM 24.8 °F 19.1 °F 23.0 °F 93% 29.70 in 10.0 mi South 4.6 mph - N/A   Clear
2:13 AM 24.8 °F 20.5 °F 21.2 °F 86% 29.70 in 10.0 mi SSE 3.5 mph - N/A   Scattered Clouds
2:32 AM 21.2 °F - 21.2 °F 100% 29.71 in 10.0 mi Calm Calm - N/A   Scattered Clouds
2:53 AM 24.8 °F 15.3 °F 24.8 °F 100% 29.67 in 10.0 mi South 9.2 mph - N/A   Mostly Cloudy
3:13 AM 24.8 °F 20.5 °F 21.2 °F 86% 29.71 in 10.0 mi NNW 3.5 mph - N/A   Scattered Clouds
3:32 AM 23.0 °F - 21.2 °F 93% 29.70 in 10.0 mi Calm Calm - N/A   Clear
3:53 AM 21.2 °F - 19.4 °F 93% 29.70 in 10.0 mi Calm Calm - N/A   Clear
4:13 AM 19.4 °F - 19.4 °F 100% 29.70 in 10.0 mi Calm Calm - N/A   Clear
4:32 AM 17.6 °F - 17.6 °F 100% 29.70 in 1.2 mi Calm Calm - N/A   Mist
4:53 AM 17.6 °F - 15.8 °F 93% 29.70 in 2.0 mi Calm Calm - N/A   Mostly Cloudy
5:13 AM 19.4 °F - 17.6 °F 93% 29.69 in 7.0 mi Calm Calm - N/A   Scattered Clouds
5:32 AM 21.2 °F 13.6 °F 21.2 °F 100% 29.68 in 10.0 mi West 5.8 mph - N/A   Scattered Clouds
5:53 AM 24.8 °F 17.9 °F 21.2 °F 86% 29.69 in 10.0 mi West 5.8 mph - N/A   Scattered Clouds
6:12 AM 24.8 °F 17.9 °F 21.2 °F 86% 29.71 in 10.0 mi WNW 5.8 mph - N/A   Mostly Cloudy
6:33 AM 24.8 °F 17.9 °F 24.8 °F 100% 29.71 in 10.0 mi West 5.8 mph - N/A   Overcast
6:53 AM 26.6 °F 18.2 °F 24.8 °F 93% 29.72 in 10.0 mi NW 8.1 mph - N/A   Overcast
7:12 AM 28.4 °F 18.0 °F 26.6 °F 93% 29.73 in 10.0 mi NW 12.7 mph - N/A   Mostly Cloudy
7:33 AM 28.4 °F 19.1 °F 26.6 °F 93% 29.73 in 10.0 mi NW 10.4 mph - N/A   Overcast
7:53 AM 30.2 °F 23.4 °F 26.6 °F 86% 29.73 in 10.0 mi NNW 6.9 mph - N/A   Overcast
8:12 AM 32.0 °F 23.6 °F 26.6 °F 80% 29.74 in 10.0 mi NNW 10.4 mph - N/A   Scattered Clouds
8:33 AM 30.2 °F 21.3 °F 26.6 °F 86% 29.74 in 10.0 mi NNW 10.4 mph - N/A   Mostly Cloudy
8:53 AM 33.8 °F 23.9 °F 28.4 °F 81% 29.76 in 10.0 mi NNW 15.0 mph - N/A   Mostly Cloudy
9:33 AM 35.6 °F 25.9 °F 30.2 °F 81% 29.78 in 10.0 mi NNW 16.1 mph - N/A   Mostly Cloudy
9:53 AM 37.4 °F 27.5 °F 30.2 °F 75% 29.79 in 10.0 mi NNW 18.4 mph 24.2 mph N/A   Scattered Clouds
10:12 AM 37.4 °F 26.9 °F 30.2 °F 75% 29.79 in 10.0 mi NNW 20.7 mph 25.3 mph N/A   Clear
10:33 AM 37.4 °F 26.6 °F 30.2 °F 75% 29.80 in 10.0 mi NNW 21.9 mph 27.6 mph N/A   Clear
10:53 AM 37.4 °F 27.2 °F 30.2 °F 75% 29.81 in 10.0 mi NNW 19.6 mph 26.5 mph N/A   Clear
11:12 AM 37.4 °F 26.6 °F 30.2 °F 75% 29.80 in 10.0 mi NNW 21.9 mph 28.8 mph N/A   Scattered Clouds
11:33 AM 37.4 °F 26.9 °F 30.2 °F 75% 29.81 in 10.0 mi NW 20.7 mph - N/A   Scattered Clouds
11:53 AM 35.6 °F 23.4 °F 30.2 °F 81% 29.81 in 10.0 mi NW 25.3 mph - N/A   Mostly Cloudy
12:12 PM 28.4 °F 10.6 °F 24.8 °F 86% 29.86 in 10.0 mi North 41.4 mph 47.2 mph N/A   Overcast
12:33 PM 24.8 °F 7.6 °F 19.4 °F 80% 29.89 in 10.0 mi North 31.1 mph 43.7 mph N/A   Overcast
12:53 PM 21.2 °F 1.7 °F 15.8 °F 80% 29.91 in 10.0 mi North 35.7 mph 41.4 mph N/A   Overcast
1:12 PM 21.2 °F 1.4 °F 14.0 °F 74% 29.93 in 10.0 mi North 36.8 mph 43.7 mph N/A   Overcast
1:33 PM 19.4 °F -0.3 °F 12.2 °F 74% 29.93 in 10.0 mi North 33.4 mph 44.9 mph N/A   Overcast
1:53 PM 17.6 °F -2.2 °F 10.4 °F 73% 29.94 in 10.0 mi North 31.1 mph 40.3 mph N/A   Overcast
2:12 PM 17.6 °F -2.2 °F 10.4 °F 73% 29.95 in 10.0 mi North 31.1 mph 42.6 mph N/A   Overcast
2:33 PM 15.8 °F -5.5 °F 8.6 °F 73% 29.96 in 10.0 mi North 34.5 mph 42.6 mph N/A   Overcast
2:53 PM 15.8 °F -5.5 °F 8.6 °F 73% 29.98 in 10.0 mi North 34.5 mph 41.4 mph N/A   Overcast
3:12 PM 14.0 °F -6.5 °F 6.8 °F 73% 30.00 in 10.0 mi North 28.8 mph 39.1 mph N/A   Overcast
3:33 PM 12.2 °F -9.9 °F 6.8 °F 79% 30.02 in 7.0 mi North 32.2 mph 39.1 mph N/A   Mostly Cloudy
3:53 PM 12.2 °F -9.3 °F 8.6 °F 85% 30.04 in 1.8 mi North 29.9 mph 35.7 mph N/A Snow Light Snow
4:12 PM 10.4 °F -11.0 °F 6.8 °F 85% 30.07 in 1.0 mi North 27.6 mph 40.3 mph N/A Snow Light Snow
4:33 PM 8.6 °F -14.5 °F 3.2 °F 79% 30.09 in 7.0 mi North 31.1 mph 39.1 mph N/A   Overcast
4:53 PM 8.6 °F -15.7 °F 1.4 °F 73% 30.11 in 5.0 mi North 35.7 mph 41.4 mph N/A   Haze
5:12 PM 8.6 °F -14.8 °F 1.4 °F 73% 30.13 in 7.0 mi North 32.2 mph 42.6 mph N/A   Overcast
5:33 PM 6.8 °F -16.9 °F -0.4 °F 72% 30.15 in 10.0 mi North 31.1 mph 39.1 mph N/A Snow Light Snow
5:53 PM 5.0 °F -19.0 °F -0.4 °F 78% 30.17 in 5.0 mi North 29.9 mph 40.3 mph N/A Snow Light Snow
6:12 PM 5.0 °F -17.9 °F -0.4 °F 78% 30.18 in 7.0 mi North 26.5 mph 33.4 mph N/A Snow Light Snow
6:33 PM 5.0 °F -19.4 °F -2.2 °F 72% 30.19 in 7.0 mi North 31.1 mph 39.1 mph N/A   Overcast
6:53 PM 3.2 °F -20.7 °F -2.2 °F 78% 30.21 in 10.0 mi North 27.6 mph 36.8 mph N/A   Mostly Cloudy
7:12 PM 3.2 °F -18.6 °F -4.0 °F 72% 30.22 in 10.0 mi North 21.9 mph 35.7 mph N/A   Mostly Cloudy
7:33 PM 3.2 °F -21.1 °F -2.2 °F 78% 30.23 in 5.0 mi North 28.8 mph 34.5 mph N/A Snow Light Snow
7:52 PM 3.2 °F -19.9 °F -2.2 °F 78% 30.24 in 1.2 mi North 25.3 mph 33.4 mph N/A Snow Light Snow
8:13 PM 1.4 °F -21.9 °F -2.2 °F 85% 30.24 in 2.5 mi North 24.2 mph 33.4 mph N/A Snow Light Snow
8:52 PM 1.4 °F -22.3 °F -4.0 °F 78% 30.26 in 3.0 mi North 25.3 mph 32.2 mph N/A   Haze
9:13 PM 1.4 °F -21.0 °F -4.0 °F 78% 30.26 in 7.0 mi North 21.9 mph 31.1 mph N/A Snow Light Snow
9:33 PM 1.4 °F -19.4 °F -4.0 °F 78% 30.26 in 7.0 mi North 18.4 mph 25.3 mph N/A   Mostly Cloudy
9:52 PM -0.4 °F -21.7 °F -5.8 °F 78% 30.26 in 10.0 mi North 18.4 mph 27.6 mph N/A   Mostly Cloudy
10:13 PM -0.4 °F -22.8 °F -5.8 °F 78% 30.27 in 10.0 mi North 20.7 mph 27.6 mph N/A   Mostly Cloudy
10:33 PM -0.4 °F -23.3 °F -5.8 °F 78% 30.29 in 7.0 mi NNW 21.9 mph 28.8 mph N/A   Overcast
10:52 PM -0.4 °F -22.8 °F -5.8 °F 78% 30.30 in 3.0 mi North 20.7 mph 27.6 mph N/A   Haze
11:13 PM -0.4 °F -24.3 °F -7.6 °F 72% 30.30 in 7.0 mi North 24.2 mph 28.8 mph N/A   Overcast
11:33 PM -0.4 °F -21.7 °F -7.6 °F 72% 30.30 in 10.0 mi North 18.4 mph - N/A   Scattered Clouds
11:52 PM -2.2 °F -24.1 °F -7.6 °F 78% 30.29 in 10.0 mi North 18.4 mph 23.0 mph N/A   Clear